EN

Hourly Weather La Guaira

Today, 5 August, Thursday

Time Temperature Precipitation Wind Pressure Humidity
00:00 +21°C° 0 mm 2 mps 715 mmHg 95%
01:00 +21°C° 0 mm 2 mps 714 mmHg 95%
02:00 +21°C° 0 mm 2 mps 714 mmHg 95%
03:00 +21°C° 0 mm 2 mps 714 mmHg 94%
04:00 +21°C° 0 mm 2 mps 714 mmHg 93%
05:00 +21°C° 0 mm 2 mps 714 mmHg 93%
06:00 +23°C° 0 mm 2 mps 714 mmHg 90%
07:00 +24°C° 0 mm 1 mps 715 mmHg 87%
08:00 +25°C° 0 mm 1 mps 715 mmHg 84%
09:00 +26°C° 0 mm 1 mps 715 mmHg 75%
10:00 +28°C° 0 mm 2 mps 715 mmHg 67%
11:00 +30°C° 0 mm 3 mps 715 mmHg 58%
12:00 +30°C° 0.2 mm 3 mps 715 mmHg 61%
13:00 +30°C° 0.2 mm 3 mps 714 mmHg 63%
14:00 +30°C° 0.2 mm 3 mps 713 mmHg 65%
15:00 +29°C° 0.2 mm 3 mps 713 mmHg 68%
16:00 +29°C° 0.2 mm 3 mps 713 mmHg 72%
17:00 +28°C° 0.2 mm 3 mps 712 mmHg 75%
18:00 +27°C° 0.1 mm 3 mps 713 mmHg 82%
19:00 +25°C° 0.1 mm 3 mps 713 mmHg 88%
20:00 +22°C° 0.1 mm 3 mps 714 mmHg 94%
21:00 +22°C° 0.1 mm 3 mps 714 mmHg 95%
22:00 +22°C° 0.1 mm 3 mps 714 mmHg 95%
23:00 +23°C° 0.1 mm 2 mps 715 mmHg 96%

Tomorrow, 6 August, Friday

Time Temperature Precipitation Wind Pressure Humidity
00:00 +23°C° 0 mm 2 mps 714 mmHg 96%
01:00 +21°C° 0 mm 2 mps 714 mmHg 96%
02:00 +21°C° 0 mm 2 mps 713 mmHg 95%
03:00 +21°C° 0 mm 2 mps 713 mmHg 95%
04:00 +21°C° 0 mm 2 mps 713 mmHg 94%
05:00 +21°C° 0 mm 2 mps 713 mmHg 93%
06:00 +23°C° 0 mm 1 mps 714 mmHg 89%
07:00 +24°C° 0 mm 1 mps 714 mmHg 86%
08:00 +25°C° 0 mm 1 mps 714 mmHg 82%
09:00 +27°C° 0 mm 1 mps 714 mmHg 74%
10:00 +29°C° 0 mm 1 mps 715 mmHg 65%
11:00 +30°C° 0 mm 1 mps 715 mmHg 57%
12:00 +31°C° 0.2 mm 1 mps 714 mmHg 57%
13:00 +31°C° 0.2 mm 1 mps 713 mmHg 57%
14:00 +31°C° 0.2 mm 1 mps 713 mmHg 57%
15:00 +30°C° 0.2 mm 2 mps 713 mmHg 65%
16:00 +29°C° 0.2 mm 2 mps 712 mmHg 73%
17:00 +27°C° 0.2 mm 3 mps 712 mmHg 82%
18:00 +26°C° 0.1 mm 3 mps 712 mmHg 85%
19:00 +25°C° 0.1 mm 3 mps 713 mmHg 89%
20:00 +23°C° 0.1 mm 4 mps 713 mmHg 93%
21:00 +22°C° 0 mm 3 mps 713 mmHg 94%
22:00 +22°C° 0 mm 3 mps 714 mmHg 94%
23:00 +22°C° 0 mm 3 mps 714 mmHg 95%

Day after tomorrow, 7 August, Saturday

Time Temperature Precipitation Wind Pressure Humidity
00:00 +22°C° 0 mm 3 mps 714 mmHg 95%
01:00 +23°C° 0 mm 2 mps 713 mmHg 95%
02:00 +21°C° 0 mm 2 mps 713 mmHg 95%
03:00 +21°C° 0 mm 2 mps 713 mmHg 94%
04:00 +21°C° 0 mm 2 mps 713 mmHg 94%
05:00 +21°C° 0 mm 2 mps 713 mmHg 93%
06:00 +23°C° 0 mm 2 mps 713 mmHg 89%
07:00 +25°C° 0 mm 2 mps 713 mmHg 85%
08:00 +26°C° 0 mm 2 mps 714 mmHg 81%
09:00 +27°C° 0.1 mm 3 mps 714 mmHg 74%
10:00 +29°C° 0.1 mm 3 mps 714 mmHg 68%
11:00 +30°C° 0.1 mm 4 mps 714 mmHg 62%
12:00 +30°C° 0.5 mm 4 mps 713 mmHg 67%
13:00 +29°C° 0.5 mm 4 mps 713 mmHg 72%
14:00 +28°C° 0.5 mm 4 mps 713 mmHg 78%
15:00 +28°C° 0.5 mm 4 mps 712 mmHg 82%
16:00 +27°C° 0.5 mm 3 mps 712 mmHg 86%
17:00 +27°C° 0.5 mm 3 mps 712 mmHg 90%
18:00 +26°C° 0.2 mm 3 mps 712 mmHg 91%
19:00 +25°C° 0.2 mm 4 mps 712 mmHg 93%
20:00 +23°C° 0.2 mm 4 mps 713 mmHg 95%
21:00 +23°C° 0.2 mm 4 mps 713 mmHg 95%
22:00 +22°C° 0.2 mm 4 mps 713 mmHg 95%
23:00 +22°C° 0.2 mm 4 mps 713 mmHg 95%

8 August, Sunday

Time Temperature Precipitation Wind Pressure Humidity
00:00 +22°C° 0 mm 3 mps 713 mmHg 95%
01:00 +22°C° 0 mm 3 mps 712 mmHg 95%
02:00 +22°C° 0 mm 3 mps 712 mmHg 94%
03:00 +22°C° 0 mm 3 mps 712 mmHg 94%
04:00 +21°C° 0 mm 3 mps 712 mmHg 94%
05:00 +21°C° 0 mm 3 mps 712 mmHg 94%
06:00 +22°C° 0 mm 3 mps 712 mmHg 92%
07:00 +24°C° 0 mm 3 mps 713 mmHg 89%
08:00 +25°C° 0 mm 2 mps 713 mmHg 87%
09:00 +27°C° 0 mm 3 mps 713 mmHg 78%
10:00 +29°C° 0 mm 3 mps 713 mmHg 70%
11:00 +31°C° 0 mm 3 mps 713 mmHg 61%
12:00 +31°C° 0.1 mm 3 mps 713 mmHg 61%
13:00 +31°C° 0.1 mm 3 mps 712 mmHg 61%
14:00 +31°C° 0.1 mm 3 mps 712 mmHg 61%
15:00 +30°C° 0.4 mm 3 mps 712 mmHg 69%
16:00 +29°C° 0.4 mm 3 mps 712 mmHg 77%
17:00 +27°C° 0.4 mm 3 mps 711 mmHg 86%
18:00 +26°C° 0.3 mm 3 mps 712 mmHg 88%
19:00 +25°C° 0.3 mm 3 mps 712 mmHg 91%
20:00 +24°C° 0.3 mm 3 mps 712 mmHg 94%
21:00 +24°C° 0.1 mm 3 mps 713 mmHg 95%
22:00 +24°C° 0.1 mm 3 mps 713 mmHg 96%
23:00 +22°C° 0.1 mm 3 mps 713 mmHg 96%

9 August, Monday

Time Temperature Precipitation Wind Pressure Humidity
00:00 +22°C° 0 mm 3 mps 713 mmHg 96%
01:00 +22°C° 0 mm 3 mps 713 mmHg 96%
02:00 +22°C° 0 mm 3 mps 712 mmHg 96%
03:00 +22°C° 0 mm 3 mps 712 mmHg 96%
04:00 +21°C° 0 mm 3 mps 712 mmHg 96%
05:00 +21°C° 0 mm 3 mps 712 mmHg 95%
06:00 +22°C° 0 mm 3 mps 712 mmHg 94%
07:00 +24°C° 0 mm 3 mps 713 mmHg 92%
08:00 +25°C° 0 mm 2 mps 713 mmHg 91%
09:00 +27°C° 0 mm 3 mps 713 mmHg 80%
10:00 +29°C° 0 mm 3 mps 713 mmHg 69%
11:00 +31°C° 0 mm 3 mps 714 mmHg 58%
12:00 +31°C° 0.4 mm 3 mps 713 mmHg 63%
13:00 +30°C° 0.4 mm 4 mps 713 mmHg 68%
14:00 +30°C° 0.4 mm 4 mps 712 mmHg 73%
15:00 +29°C° 0.6 mm 4 mps 712 mmHg 79%
16:00 +28°C° 0.6 mm 4 mps 712 mmHg 85%
17:00 +26°C° 0.6 mm 4 mps 711 mmHg 92%
18:00 +26°C° 0.7 mm 4 mps 712 mmHg 93%
19:00 +25°C° 0.7 mm 4 mps 712 mmHg 94%
20:00 +23°C° 0.7 mm 4 mps 712 mmHg 96%
21:00 +23°C° 0.3 mm 4 mps 713 mmHg 96%
22:00 +23°C° 0.3 mm 4 mps 713 mmHg 96%
23:00 +22°C° 0.3 mm 4 mps 713 mmHg 96%

10 August, Tuesday

Time Temperature Precipitation Wind Pressure Humidity
00:00 +22°C° 0.1 mm 4 mps 713 mmHg 96%
01:00 +22°C° 0.1 mm 3 mps 713 mmHg 96%
02:00 +22°C° 0.1 mm 3 mps 712 mmHg 95%
03:00 +22°C° 0 mm 3 mps 712 mmHg 95%
04:00 +22°C° 0 mm 3 mps 712 mmHg 95%
05:00 +22°C° 0 mm 3 mps 712 mmHg 95%
06:00 +24°C° 0 mm 3 mps 713 mmHg 92%
07:00 +25°C° 0 mm 2 mps 713 mmHg 90%
08:00 +26°C° 0 mm 2 mps 713 mmHg 87%
09:00 +27°C° 0.1 mm 2 mps 713 mmHg 79%
10:00 +29°C° 0.1 mm 3 mps 713 mmHg 71%
11:00 +30°C° 0.1 mm 3 mps 714 mmHg 63%
12:00 +30°C° 0.4 mm 3 mps 713 mmHg 66%
13:00 +30°C° 0.4 mm 2 mps 713 mmHg 70%
14:00 +30°C° 0.4 mm 2 mps 712 mmHg 74%
15:00 +29°C° 0.6 mm 2 mps 712 mmHg 78%
16:00 +29°C° 0.6 mm 2 mps 712 mmHg 82%
17:00 +29°C° 0.6 mm 2 mps 711 mmHg 85%
18:00 +27°C° 0.1 mm 3 mps 712 mmHg 88%
19:00 +26°C° 0.1 mm 3 mps 712 mmHg 91%
20:00 +25°C° 0.1 mm 3 mps 712 mmHg 93%
21:00 +24°C° 0.8 mm 3 mps 712 mmHg 94%
22:00 +24°C° 0.8 mm 3 mps 713 mmHg 95%
23:00 +24°C° 0.8 mm 3 mps 713 mmHg 96%
Show more